TimeMDT,TemperatureF,Dew PointF,Humidity,Sea Level PressureIn,VisibilityMPH,Wind Direction,Wind SpeedMPH,Gust SpeedMPH,PrecipitationIn,Events,Conditions,WindDirDegrees,DateUTC
12:35 AM,57.2,55.4,94,30.22,0.1,SSE,8.1,-,N/A,Fog,Fog,160,2013-09-17 06:35:00
12:54 AM,57.0,57.0,100,30.07,0.0,South,3.5,-,N/A,Fog,Fog,170,2013-09-17 06:54:00
1:34 AM,57.2,55.4,94,30.21,0.0,Calm,Calm,-,N/A,Fog,Fog,0,2013-09-17 07:34:00
1:54 AM,57.0,55.9,96,30.04,2.0,Calm,Calm,-,N/A,,Overcast,0,2013-09-17 07:54:00
2:09 AM,57.2,55.4,94,30.20,5.0,NNW,3.5,-,N/A,,Overcast,330,2013-09-17 08:09:00
2:24 AM,57.2,55.4,94,30.19,6.0,Calm,Calm,-,N/A,,Overcast,0,2013-09-17 08:24:00
2:54 AM,57.9,55.0,90,30.01,6.0,NW,3.5,-,N/A,,Overcast,320,2013-09-17 08:54:00
3:54 AM,55.9,54.0,93,30.00,8.0,Calm,Calm,-,N/A,,Scattered Clouds,0,2013-09-17 09:54:00
4:54 AM,54.0,52.0,93,30.00,6.0,SW,3.5,-,N/A,,Scattered Clouds,230,2013-09-17 10:54:00
5:32 AM,53.6,51.8,94,30.16,4.0,South,3.5,-,N/A,,Mostly Cloudy,190,2013-09-17 11:32:00
5:54 AM,55.0,53.1,93,30.00,3.0,Calm,Calm,-,N/A,,Overcast,0,2013-09-17 11:54:00
6:14 AM,53.6,53.6,100,30.17,0.2,Calm,Calm,-,N/A,Fog,Fog,0,2013-09-17 12:14:00
6:22 AM,53.6,53.6,100,30.17,0.1,Calm,Calm,-,N/A,Fog,Fog,0,2013-09-17 12:22:00
6:54 AM,54.0,53.1,97,30.03,0.1,WNW,3.5,-,N/A,Fog,Fog,300,2013-09-17 12:54:00
7:30 AM,53.6,51.8,94,30.17,0.2,NNW,4.6,-,N/A,Fog,Fog,340,2013-09-17 13:30:00
7:54 AM,53.1,52.0,96,30.03,0.2,NNW,3.5,-,N/A,Fog,Fog,340,2013-09-17 13:54:00
8:03 AM,53.6,53.6,100,30.16,10.0,Calm,Calm,-,N/A,,Partly Cloudy,0,2013-09-17 14:03:00
8:54 AM,60.1,55.0,83,29.97,10.0,SW,3.5,-,N/A,,Clear,220,2013-09-17 14:54:00
9:54 AM,66.0,55.0,68,29.95,10.0,Calm,Calm,-,N/A,,Clear,0,2013-09-17 15:54:00
10:54 AM,72.0,54.0,53,29.92,10.0,Calm,Calm,-,N/A,,Partly Cloudy,0,2013-09-17 16:54:00
11:54 AM,75.0,50.0,41,29.89,10.0,North,-9999.0,-,N/A,,Partly Cloudy,0,2013-09-17 17:54:00
12:54 PM,77.0,45.0,32,29.86,10.0,South,10.4,-,N/A,,Partly Cloudy,170,2013-09-17 18:54:00
1:54 PM,78.1,39.9,25,29.83,10.0,Calm,Calm,-,N/A,,Partly Cloudy,0,2013-09-17 19:54:00
2:54 PM,79.0,46.0,31,29.79,10.0,SE,9.2,-,N/A,,Partly Cloudy,130,2013-09-17 20:54:00
3:54 PM,78.1,46.9,33,29.78,10.0,ESE,8.1,-,N/A,,Partly Cloudy,110,2013-09-17 21:54:00
4:54 PM,80.1,44.1,28,29.76,10.0,South,17.3,-,N/A,,Scattered Clouds,170,2013-09-17 22:54:00
5:54 PM,77.0,46.9,34,29.76,10.0,SSE,13.8,-,N/A,,Scattered Clouds,160,2013-09-17 23:54:00
6:54 PM,70.0,50.0,49,29.80,10.0,SSE,6.9,-,N/A,,Scattered Clouds,150,2013-09-18 00:54:00
7:54 PM,68.0,51.1,55,29.81,10.0,South,3.5,-,N/A,,Scattered Clouds,190,2013-09-18 01:54:00
8:54 PM,66.9,52.0,59,29.80,10.0,South,5.8,-,N/A,,Mostly Cloudy,180,2013-09-18 02:54:00
9:54 PM,63.0,52.0,67,29.78,10.0,NNE,8.1,-,N/A,,Mostly Cloudy,30,2013-09-18 03:54:00
10:54 PM,64.0,51.1,63,29.75,10.0,NE,5.8,-,N/A,,Mostly Cloudy,50,2013-09-18 04:54:00
11:54 PM,61.0,50.0,67,29.75,10.0,ENE,3.5,-,N/A,,Mostly Cloudy,70,2013-09-18 05:54:00